Torna al catalogo

FLOCK 4H 11

AttivoScienzaSSO
NORAD 66714·PAYLOAD·🇺🇸 United States

Lanciato Nov 28, 2025 da Vandenberg Space Force Base

Loading…

Prossimi Passaggi (prossime 24 ore)

TLE

AggiornatoSource: Space-Track

Epoca: Sep 14, 2026, 03:36 UTC

1 66714U 25276BA  26257.15063732  .00012767  00000-0  51807-3 0  9992
2 66714  97.4122 330.1000 0003918  74.5836 285.5834 15.24734196 43994

Traccia FLOCK 4H 11 in tempo reale con AllMySat

Download on the App Store